• In Uzbekistan
  • List of Countries
  • For 7 days
  • Water Temperature
  • Satellite Maps
  • Weather Map
  • Weather Widgets
  • user-avatar
    Login

    Hourly Weather Gweru

    Today, 19 July, Thursday

    Time Temperature Precipitation Wind Pressure Humidity
    00:00 +6°C° 0 mm 4 mps 650 mmHg 89%
    01:00 +6°C° 0 mm 4 mps 650 mmHg 89%
    02:00 +7°C° 0 mm 3 mps 649 mmHg 90%
    03:00 +6°C° 0 mm 4 mps 649 mmHg 90%
    04:00 +6°C° 0 mm 4 mps 649 mmHg 90%
    05:00 +7°C° 0 mm 4 mps 649 mmHg 90%
    06:00 +7°C° 0 mm 5 mps 649 mmHg 87%
    07:00 +7°C° 0 mm 5 mps 650 mmHg 83%
    08:00 +8°C° 0 mm 5 mps 650 mmHg 79%
    09:00 +9°C° 0 mm 5 mps 650 mmHg 73%
    10:00 +10°C° 0 mm 5 mps 651 mmHg 67%
    11:00 +12°C° 0 mm 5 mps 651 mmHg 61%
    12:00 +13°C° 0 mm 5 mps 650 mmHg 57%
    13:00 +14°C° 0 mm 5 mps 650 mmHg 53%
    14:00 +15°C° 0 mm 4 mps 650 mmHg 49%
    15:00 +14°C° 0 mm 4 mps 649 mmHg 51%
    16:00 +14°C° 0 mm 4 mps 649 mmHg 53%
    17:00 +13°C° 0 mm 4 mps 649 mmHg 55%
    18:00 +12°C° 0 mm 4 mps 649 mmHg 61%
    19:00 +10°C° 0 mm 3 mps 648 mmHg 67%
    20:00 +9°C° 0 mm 3 mps 648 mmHg 73%
    21:00 +9°C° 0 mm 3 mps 648 mmHg 75%
    22:00 +8°C° 0 mm 3 mps 649 mmHg 77%
    23:00 +8°C° 0 mm 3 mps 649 mmHg 78%

    Tomorrow, 20 July, Friday

    Time Temperature Precipitation Wind Pressure Humidity
    00:00 +7°C° 0 mm 3 mps 649 mmHg 79%
    01:00 +7°C° 0 mm 3 mps 648 mmHg 79%
    02:00 +7°C° 0 mm 3 mps 648 mmHg 79%
    03:00 +7°C° 0 mm 3 mps 648 mmHg 81%
    04:00 +5°C° 0 mm 3 mps 648 mmHg 82%
    05:00 +6°C° 0 mm 2 mps 648 mmHg 83%
    06:00 +7°C° 0 mm 3 mps 648 mmHg 80%
    07:00 +7°C° 0 mm 3 mps 648 mmHg 77%
    08:00 +7°C° 0 mm 4 mps 649 mmHg 74%
    09:00 +10°C° 0 mm 4 mps 649 mmHg 65%
    10:00 +13°C° 0 mm 4 mps 650 mmHg 57%
    11:00 +15°C° 0 mm 4 mps 650 mmHg 49%
    12:00 +17°C° 0 mm 4 mps 650 mmHg 45%
    13:00 +18°C° 0 mm 4 mps 649 mmHg 40%
    14:00 +19°C° 0 mm 3 mps 649 mmHg 35%
    15:00 +18°C° 0 mm 4 mps 649 mmHg 38%
    16:00 +17°C° 0 mm 4 mps 648 mmHg 42%
    17:00 +17°C° 0 mm 4 mps 648 mmHg 45%
    18:00 +14°C° 0 mm 4 mps 648 mmHg 54%
    19:00 +12°C° 0 mm 4 mps 648 mmHg 63%
    20:00 +11°C° 0 mm 4 mps 648 mmHg 71%
    21:00 +10°C° 0 mm 4 mps 648 mmHg 74%
    22:00 +10°C° 0 mm 4 mps 648 mmHg 76%
    23:00 +9°C° 0 mm 3 mps 648 mmHg 79%

    Day after tomorrow, 21 July, Saturday

    Time Temperature Precipitation Wind Pressure Humidity
    00:00 +9°C° 0 mm 3 mps 648 mmHg 81%
    01:00 +8°C° 0 mm 3 mps 648 mmHg 84%
    02:00 +8°C° 0 mm 3 mps 648 mmHg 86%
    03:00 +8°C° 0 mm 3 mps 648 mmHg 88%
    04:00 +8°C° 0 mm 3 mps 648 mmHg 91%
    05:00 +7°C° 0 mm 3 mps 647 mmHg 94%
    06:00 +8°C° 0 mm 3 mps 648 mmHg 90%
    07:00 +9°C° 0 mm 3 mps 649 mmHg 87%
    08:00 +10°C° 0 mm 4 mps 649 mmHg 83%
    09:00 +12°C° 0 mm 4 mps 650 mmHg 72%
    10:00 +14°C° 0 mm 4 mps 651 mmHg 61%
    11:00 +17°C° 0 mm 4 mps 651 mmHg 50%
    12:00 +18°C° 0 mm 4 mps 651 mmHg 45%
    13:00 +19°C° 0 mm 4 mps 650 mmHg 41%
    14:00 +20°C° 0 mm 4 mps 650 mmHg 37%
    15:00 +19°C° 0 mm 4 mps 650 mmHg 39%
    16:00 +18°C° 0 mm 4 mps 649 mmHg 41%
    17:00 +17°C° 0 mm 4 mps 649 mmHg 44%
    18:00 +15°C° 0 mm 4 mps 649 mmHg 51%
    19:00 +13°C° 0 mm 4 mps 649 mmHg 58%
    20:00 +11°C° 0 mm 4 mps 649 mmHg 65%
    21:00 +11°C° 0 mm 3 mps 649 mmHg 67%
    22:00 +11°C° 0 mm 3 mps 650 mmHg 69%
    23:00 +10°C° 0 mm 3 mps 650 mmHg 71%

    22 July, Sunday

    Time Temperature Precipitation Wind Pressure Humidity
    00:00 +10°C° 0 mm 3 mps 649 mmHg 74%
    01:00 +9°C° 0 mm 3 mps 649 mmHg 77%
    02:00 +9°C° 0 mm 3 mps 649 mmHg 80%
    03:00 +9°C° 0 mm 3 mps 649 mmHg 84%
    04:00 +9°C° 0 mm 3 mps 649 mmHg 89%
    05:00 +9°C° 0 mm 3 mps 649 mmHg 93%
    06:00 +10°C° 0 mm 3 mps 650 mmHg 90%
    07:00 +10°C° 0 mm 4 mps 650 mmHg 87%
    08:00 +11°C° 0 mm 4 mps 651 mmHg 84%
    09:00 +12°C° 0 mm 4 mps 651 mmHg 77%
    10:00 +13°C° 0 mm 4 mps 651 mmHg 71%
    11:00 +15°C° 0 mm 5 mps 652 mmHg 65%
    12:00 +16°C° 0 mm 5 mps 651 mmHg 59%
    13:00 +17°C° 0 mm 5 mps 651 mmHg 53%
    14:00 +19°C° 0 mm 5 mps 651 mmHg 48%
    15:00 +19°C° 0 mm 5 mps 650 mmHg 50%
    16:00 +17°C° 0 mm 5 mps 650 mmHg 51%
    17:00 +16°C° 0 mm 5 mps 650 mmHg 53%
    18:00 +15°C° 0 mm 5 mps 650 mmHg 60%
    19:00 +14°C° 0 mm 4 mps 650 mmHg 67%
    20:00 +12°C° 0 mm 4 mps 650 mmHg 74%
    21:00 +12°C° 0 mm 4 mps 650 mmHg 76%
    22:00 +11°C° 0 mm 4 mps 650 mmHg 79%
    23:00 +11°C° 0 mm 4 mps 650 mmHg 81%

    23 July, Monday

    Time Temperature Precipitation Wind Pressure Humidity
    00:00 +10°C° 0 mm 3 mps 650 mmHg 84%
    01:00 +10°C° 0 mm 3 mps 649 mmHg 86%
    02:00 +10°C° 0 mm 3 mps 649 mmHg 89%
    03:00 +9°C° 0 mm 3 mps 649 mmHg 90%
    04:00 +9°C° 0 mm 3 mps 649 mmHg 91%
    05:00 +9°C° 0 mm 3 mps 649 mmHg 92%
    06:00 +10°C° 0 mm 3 mps 650 mmHg 88%
    07:00 +10°C° 0 mm 4 mps 650 mmHg 84%
    08:00 +11°C° 0 mm 4 mps 651 mmHg 80%
    09:00 +12°C° 0 mm 4 mps 651 mmHg 74%
    10:00 +14°C° 0 mm 4 mps 651 mmHg 69%
    11:00 +15°C° 0 mm 5 mps 651 mmHg 63%
    12:00 +16°C° 0 mm 5 mps 651 mmHg 59%
    13:00 +17°C° 0 mm 5 mps 651 mmHg 55%
    14:00 +17°C° 0 mm 5 mps 650 mmHg 51%
    15:00 +18°C° 0 mm 4 mps 650 mmHg 53%
    16:00 +17°C° 0 mm 4 mps 650 mmHg 55%
    17:00 +17°C° 0 mm 4 mps 649 mmHg 57%
    18:00 +14°C° 0 mm 4 mps 649 mmHg 64%
    19:00 +13°C° 0 mm 4 mps 649 mmHg 71%
    20:00 +11°C° 0 mm 3 mps 649 mmHg 77%
    21:00 +11°C° 0 mm 3 mps 649 mmHg 79%
    22:00 +11°C° 0 mm 3 mps 649 mmHg 81%
    23:00 +10°C° 0 mm 3 mps 649 mmHg 83%

    24 July, Tuesday

    Time Temperature Precipitation Wind Pressure Humidity
    00:00 +10°C° 0 mm 3 mps 649 mmHg 84%
    01:00 +9°C° 0 mm 3 mps 648 mmHg 84%
    02:00 +9°C° 0 mm 2 mps 648 mmHg 85%
    03:00 +9°C° 0 mm 2 mps 648 mmHg 86%
    04:00 +8°C° 0 mm 2 mps 648 mmHg 87%
    05:00 +8°C° 0 mm 2 mps 648 mmHg 88%
    06:00 +9°C° 0 mm 2 mps 648 mmHg 83%
    07:00 +10°C° 0 mm 2 mps 649 mmHg 77%
    08:00 +12°C° 0 mm 2 mps 650 mmHg 72%
    09:00 +14°C° 0 mm 2 mps 650 mmHg 61%
    10:00 +17°C° 0 mm 2 mps 651 mmHg 50%
    11:00 +19°C° 0 mm 2 mps 651 mmHg 39%
    12:00 +21°C° 0 mm 2 mps 651 mmHg 35%
    13:00 +23°C° 0 mm 2 mps 650 mmHg 31%
    14:00 +24°C° 0 mm 2 mps 650 mmHg 28%
    15:00 +23°C° 0 mm 2 mps 649 mmHg 29%
    16:00 +21°C° 0 mm 2 mps 649 mmHg 31%
    17:00 +21°C° 0 mm 3 mps 648 mmHg 33%
    18:00 +19°C° 0 mm 3 mps 648 mmHg 39%
    19:00 +17°C° 0 mm 2 mps 648 mmHg 45%
    20:00 +14°C° 0 mm 2 mps 648 mmHg 51%
    21:00 +14°C° 0 mm 2 mps 648 mmHg 56%
    22:00 +13°C° 0 mm 2 mps 648 mmHg 60%
    23:00 +12°C° 0 mm 2 mps 647 mmHg 65%
    Show more